Flag for France Weather past 2 weeks in Nancy, France

Now
66 °F

Clear.


Feels Like: 66 °F
Forecast: 56 / 78 °F
Wind: 5 mph from East

Location: Nancy / Ochey

Current Time: Jul 24, 2014 at 11:09:47 PM

Latest Report: Jul 24, 2014 at 10:30 PM


Visibility: N/A

Pressure: 29.95 "Hg

Humidity: 68%

Dew point: 55 °F

Location of NancyLocation

Historic Weather in Nancy — Graph

°F

Nancy temperature yesterday

Maximum temperature yesterday: 82 °F (at 4:00 PM)
Minimum temperature yesterday: 61 °F (at 5:00 AM)
Average temperature yesterday: 72 °F

Past Weeks' High & Low Weather Summary

 TemperatureHumidityPressure
High91 °F (Jul 18, 5:00 PM)100% (Jul 10, 1:30 AM)30.21 "Hg (Jul 10, 1:30 AM)
Low54 °F (Jul 9, 10:00 PM)33% (Jul 17, 4:30 PM)29.74 "Hg (Jul 10, 3:30 AM)
Average68 °F74%29.99 "Hg
* Reported Jul 9 10:00 PM — Jul 24 10:00 PM, Nancy, Weather by CustomWeather, © 2014

Note: Actual official high and low records may vary slightly from our data, if they occured in-between our weather recording intervals... More about our weather records

Advertising

Nancy weather history for previous 24 hours

 ConditionsComfort  
Time TempWeatherWind HumidityBarometerVisibility
10:00 PM
Jul 24
66 °FClear.5 mph73%29.95 "HgN/A
9:30 PM68 °FClear.6 mph73%29.92 "HgN/A
9:00 PM70 °FClear.2 mph69%29.92 "HgN/A
8:30 PM72 °FClear.3 mph65%29.92 "HgN/A
8:00 PM72 °FMild.3 mph61%29.92 "HgN/A
7:30 PM72 °FMild.3 mph61%29.92 "HgN/A
7:00 PM72 °FMild.6 mph65%29.92 "HgN/A
6:30 PM72 °FMild.10 mph65%29.89 "HgN/A
6:00 PM81 °FPleasantly warm.3 mph39%29.89 "HgN/A
5:30 PM81 °FWarm.1 mph45%29.89 "HgN/A
5:00 PM75 °FMild.7 mph57%29.92 "HgN/A
4:30 PM82 °FPleasantly warm.6 mph37%29.92 "HgN/A
4:00 PM81 °FWarm.6 mph42%29.92 "HgN/A
3:30 PM82 °FClear.6 mph40%29.92 "HgN/A
3:00 PM79 °FClear.2 mph42%29.92 "HgN/A
2:30 PM79 °FClear.6 mph51%29.92 "HgN/A
2:00 PM79 °FClear.5 mph48%29.92 "HgN/A
1:30 PM77 °FClear.3 mph51%29.95 "HgN/A
1:00 PM77 °FClear.7 mph54%29.95 "HgN/A
12:30 PM75 °FClear.5 mph61%29.95 "HgN/A
12:00 PM77 °FClear.6 mph54%29.95 "HgN/A
11:30 AM75 °FClear.6 mph57%29.95 "HgN/A
11:00 AM75 °FClear.5 mph57%29.95 "HgN/A
10:30 AM73 °FClear.5 mph65%29.95 "HgN/A
10:00 AM70 °FClear.5 mph69%29.95 "HgN/A
9:30 AM70 °FClear.2 mph69%29.92 "HgN/A
9:00 AM68 °FClear.3 mph73%29.95 "HgN/A
8:30 AM64 °FClear.3 mph83%29.92 "HgN/A
8:00 AM63 °FClear.5 mph88%29.92 "HgN/A
7:30 AM63 °FClear.6 mph83%29.92 "HgN/A
7:00 AM61 °FClear.2 mph88%29.92 "HgN/A
6:30 AM59 °FClear.No wind94%29.92 "HgN/A
6:00 AM59 °FClear.2 mph94%29.92 "HgN/A
5:30 AM59 °FClear.No wind88%29.92 "HgN/A
5:00 AM59 °FClear.1 mph94%29.92 "HgN/A
4:30 AM61 °FClear.No wind88%29.92 "HgN/A
4:00 AM61 °FClear.2 mph83%29.92 "HgN/A
3:30 AM63 °FClear.5 mph77%29.92 "HgN/A
2:30 AM64 °FClear.No wind78%29.92 "HgN/A
2:00 AM64 °FClear.2 mph78%29.95 "HgN/A
1:30 AM64 °FClear.2 mph78%29.95 "HgN/A
1:00 AM66 °FClear.3 mph68%29.95 "HgN/A
12:30 AM68 °FClear.6 mph69%29.95 "HgN/A
12:00 AM68 °FClear.7 mph69%29.95 "HgN/A
11:30 PM
Jul 23
68 °FClear.6 mph69%29.95 "HgN/A
11:00 PM70 °FClear.6 mph64%29.95 "HgN/A
Weather by CustomWeather, © 2014

See weather overviewHow to use our weather pages